| time (UTC) | temp F | wind direction | speed MPH | gust MPH | rain 1hr in | rain 24hr in | rain mn in | humidity % | barometer mb |
| 20260906012202 | 65 | 286 | 1.0 | 3.0 | 0.00 | 0.03 | 0.03 | 97 | 1013.2 |
| 20260906011702 | 66 | 0 | 0.0 | 1.0 | 0.00 | 0.03 | 0.03 | 96 | 1013.5 |
| 20260906011201 | 66 | 270 | 0.0 | 2.0 | 0.00 | 0.03 | 0.03 | 96 | 1013.2 |
| 20260906005703 | 67 | 294 | 0.0 | 3.0 | 0.00 | 0.03 | 0.03 | 95 | 1012.8 |
| 20260906005201 | 67 | 341 | 0.0 | 5.0 | 0.00 | 0.03 | 0.03 | 94 | 1012.5 |
| 20260906004702 | 67 | 35 | 0.0 | 5.0 | 0.00 | 0.03 | 0.03 | 93 | 1012.1 |
| 20260906004201 | 67 | 239 | 2.0 | 5.0 | 0.00 | 0.03 | 0.03 | 94 | 1012.1 |
| 20260906003200 | 68 | 257 | 1.0 | 6.0 | 0.00 | 0.03 | 0.03 | 93 | 1011.8 |
| 20260906002701 | 68 | 341 | 2.0 | 5.0 | 0.00 | 0.03 | 0.03 | 92 | 1011.8 |
| 20260906002201 | 68 | 248 | 2.0 | 7.0 | 0.00 | 0.03 | 0.03 | 92 | 1012.1 |
| 20260906001703 | 69 | 263 | 1.0 | 7.0 | 0.00 | 0.03 | 0.03 | 91 | 1012.1 |
| 20260906001201 | 69 | 245 | 2.0 | 6.0 | 0.00 | 0.03 | 0.03 | 91 | 1012.1 |
| 20260906000702 | 69 | 264 | 0.0 | 5.0 | 0.00 | 0.03 | 0.03 | 91 | 1012.1 |
| 20260906000201 | 69 | 289 | 1.0 | 5.0 | 0.00 | 0.03 | 0.03 | 90 | 1011.8 |
| 20260905235703 | 70 | 312 | 2.0 | 5.0 | 0.00 | 0.03 | 0.03 | 89 | 1011.8 |
| 20260905235202 | 70 | 257 | 1.0 | 5.0 | 0.00 | 0.03 | 0.03 | 88 | 1012.1 |
| 20260905234703 | 71 | 270 | 2.0 | 5.0 | 0.00 | 0.03 | 0.03 | 87 | 1012.1 |
| 20260905234201 | 71 | 260 | 2.0 | 5.0 | 0.00 | 0.03 | 0.03 | 86 | 1011.8 |
| 20260905233702 | 70 | 350 | 3.0 | 6.0 | 0.00 | 0.03 | 0.03 | 87 | 1011.8 |
| 20260905233200 | 70 | 285 | 2.0 | 6.0 | 0.00 | 0.03 | 0.03 | 88 | 1011.5 |
| 20260905232703 | 69 | 255 | 1.0 | 7.0 | 0.00 | 0.03 | 0.03 | 88 | 1011.8 |
| 20260905232201 | 69 | 304 | 2.0 | 7.0 | 0.00 | 0.03 | 0.03 | 88 | 1011.8 |
| 20260905231702 | 70 | 304 | 2.0 | 6.0 | 0.00 | 0.03 | 0.03 | 88 | 1012.1 |
| 20260905231201 | 70 | 295 | 2.0 | 5.0 | 0.00 | 0.03 | 0.03 | 87 | 1012.1 |
| 20260905225703 | 71 | 241 | 3.0 | 6.0 | 0.00 | 0.03 | 0.03 | 86 | 1012.1 |
| 20260905224704 | 71 | 266 | 2.0 | 7.0 | 0.00 | 0.03 | 0.03 | 86 | 1012.1 |
| 20260905224201 | 72 | 356 | 2.0 | 6.0 | 0.00 | 0.03 | 0.03 | 85 | 1011.8 |
| 20260905223201 | 73 | 239 | 0.0 | 6.0 | 0.00 | 0.03 | 0.03 | 85 | 1011.8 |
| 20260905222202 | 72 | 233 | 2.0 | 6.0 | 0.00 | 0.03 | 0.03 | 84 | 1011.8 |
| 20260905221701 | 72 | 340 | 4.0 | 8.0 | 0.00 | 0.03 | 0.03 | 86 | 1011.8 |
| 20260905221202 | 70 | 284 | 5.0 | 8.0 | 0.00 | 0.03 | 0.03 | 87 | 1011.8 |
| 20260905220701 | 70 | 324 | 2.0 | 8.0 | 0.00 | 0.03 | 0.03 | 87 | 1011.8 |
| 20260905220202 | 71 | 270 | 2.0 | 6.0 | 0.00 | 0.03 | 0.03 | 86 | 1011.5 |
| 20260905214701 | 71 | 336 | 2.0 | 9.0 | 0.00 | 0.03 | 0.03 | 85 | 1011.5 |
| 20260905214200 | 72 | 254 | 3.0 | 6.0 | 0.00 | 0.03 | 0.03 | 84 | 1011.5 |
| 20260905213700 | 72 | 351 | 4.0 | 9.0 | 0.00 | 0.03 | 0.03 | 85 | 1011.5 |
| 20260905213203 | 73 | 304 | 2.0 | 9.0 | 0.00 | 0.03 | 0.03 | 84 | 1011.8 |
| 20260905212701 | 73 | 0 | 0.0 | 9.0 | 0.00 | 0.03 | 0.03 | 86 | 1011.8 |
| 20260905212203 | 72 | 296 | 9.0 | 9.0 | 0.00 | 0.03 | 0.03 | 86 | 1011.8 |
| 20260905211701 | 71 | 340 | 0.0 | 9.0 | 0.00 | 0.03 | 0.03 | 89 | 1011.8 |
| 20260905210203 | 70 | 312 | 2.0 | 7.0 | 0.00 | 0.03 | 0.03 | 91 | 1011.8 |
| 20260905205701 | 69 | 300 | 3.0 | 7.0 | 0.00 | 0.03 | 0.03 | 91 | 1012.1 |
| 20260905205203 | 70 | 283 | 2.0 | 9.0 | 0.01 | 0.03 | 0.03 | 90 | 1012.1 |
| 20260905204701 | 71 | 324 | 2.0 | 9.0 | 0.01 | 0.03 | 0.03 | 92 | 1012.1 |
| 20260905204203 | 70 | 344 | 0.0 | 7.0 | 0.01 | 0.03 | 0.03 | 94 | 1012.1 |
| 20260905203701 | 68 | 345 | 2.0 | 9.0 | 0.02 | 0.03 | 0.03 | 96 | 1012.1 |
| 20260905203203 | 67 | 292 | 2.0 | 9.0 | 0.03 | 0.03 | 0.03 | 97 | 1012.5 |
| 20260905202701 | 66 | 270 | 3.0 | 5.0 | 0.03 | 0.03 | 0.03 | 97 | 1012.1 |
| 20260905201700 | 66 | 263 | 1.0 | 6.0 | 0.03 | 0.03 | 0.03 | 99 | 1012.1 |
| 20260905201200 | 66 | 348 | 3.0 | 6.0 | 0.03 | 0.03 | 0.03 | 99 | 1012.5 |
| 20260905200701 | 66 | 297 | 3.0 | 6.0 | 0.03 | 0.03 | 0.03 | 99 | 1012.8 |
| 20260905200202 | 66 | 279 | 3.0 | 4.0 | 0.03 | 0.03 | 0.03 | 99 | 1013.2 |
| 20260905195701 | 66 | 286 | 1.0 | 4.0 | 0.03 | 0.03 | 0.03 | 99 | 1013.9 |
| 20260905195202 | 66 | 346 | 0.0 | 4.0 | 0.02 | 0.02 | 0.02 | 99 | 1013.9 |
| 20260905194701 | 66 | 322 | 2.0 | 2.0 | 0.02 | 0.02 | 0.02 | 98 | 1014.3 |
| 20260905194202 | 66 | 15 | 0.0 | 2.0 | 0.02 | 0.02 | 0.02 | 98 | 1014.6 |
| 20260905193701 | 66 | 15 | 0.0 | 2.0 | 0.01 | 0.01 | 0.01 | 97 | 1014.6 |
| 20260905193203 | 66 | 258 | 2.0 | 2.0 | 0.00 | 0.00 | 0.00 | 97 | 1014.6 |
| 20260905192701 | 67 | 209 | 0.0 | 2.0 | 0.00 | 0.00 | 0.00 | 97 | 1014.9 |
| 20260905192201 | 67 | 195 | 0.0 | 0.0 | 0.00 | 0.00 | 0.00 | 96 | 1015.3 |
| 20260905191700 | 67 | 195 | 0.0 | 0.0 | 0.00 | 0.00 | 0.00 | 96 | 1015.6 |
| 20260905191202 | 67 | 195 | 0.0 | 0.0 | 0.00 | 0.00 | 0.00 | 96 | 1015.3 |
| 20260905190203 | 67 | 195 | 0.0 | 0.0 | 0.00 | 0.00 | 0.00 | 94 | 1016.1 |
| 20260905185701 | 67 | 195 | 0.0 | 1.0 | 0.00 | 0.00 | 0.00 | 94 | 1016.1 |
| 20260905185202 | 67 | 195 | 1.0 | 1.0 | 0.00 | 0.00 | 0.00 | 93 | 1016.1 |
| 20260905184701 | 67 | 90 | 0.0 | 1.0 | 0.00 | 0.00 | 0.00 | 92 | 1016.1 |
| 20260905184202 | 67 | 81 | 0.0 | 0.0 | 0.00 | 0.00 | 0.00 | 93 | 1016.4 |
| 20260905183701 | 68 | 15 | 0.0 | 0.0 | 0.00 | 0.00 | 0.00 | 92 | 1016.1 |
| 20260905183202 | 68 | 15 | 0.0 | 1.0 | 0.00 | 0.00 | 0.00 | 92 | 1016.1 |
| 20260905182700 | 68 | 15 | 0.0 | 2.0 | 0.00 | 0.00 | 0.00 | 92 | 1016.1 |
| 20260905182201 | 68 | 195 | 0.0 | 2.0 | 0.00 | 0.00 | 0.00 | 90 | 1015.6 |
| 20260905181700 | 69 | 0 | 0.0 | 3.0 | 0.00 | 0.00 | 0.00 | 90 | 1015.3 |
| 20260905181200 | 69 | 334 | 0.0 | 4.0 | 0.00 | 0.00 | 0.00 | 90 | 1015.3 |
| 20260905180659 | 68 | 265 | 2.0 | 3.0 | 0.00 | 0.00 | 0.00 | 89 | 1015.3 |
| 20260905180200 | 69 | 270 | 0.0 | 3.0 | 0.00 | 0.00 | 0.00 | 88 | 1014.9 |
| 20260905175658 | 69 | 254 | 1.0 | 2.0 | 0.00 | 0.00 | 0.00 | 88 | 1015.3 |
| 20260905175159 | 69 | 277 | 0.0 | 3.0 | 0.00 | 0.00 | 0.00 | 87 | 1014.9 |
| 20260905174657 | 70 | 338 | 3.0 | 4.0 | 0.00 | 0.00 | 0.00 | 86 | 1014.9 |
| 20260905174159 | 71 | 334 | 0.0 | 4.0 | 0.00 | 0.00 | 0.00 | 86 | 1014.9 |
| 20260905173657 | 69 | 301 | 2.0 | 4.0 | 0.00 | 0.00 | 0.00 | 87 | 1014.6 |
| 20260905173158 | 69 | 270 | 0.0 | 4.0 | 0.00 | 0.00 | 0.00 | 89 | 1014.6 |
| 20260905172656 | 69 | 278 | 0.0 | 4.0 | 0.00 | 0.00 | 0.00 | 89 | 1014.9 |
| 20260905172156 | 69 | 286 | 0.0 | 4.0 | 0.00 | 0.00 | 0.00 | 89 | 1014.9 |
| 20260905171656 | 68 | 346 | 2.0 | 3.0 | 0.00 | 0.00 | 0.00 | 90 | 1014.9 |
| 20260905171155 | 67 | 255 | 0.0 | 5.0 | 0.00 | 0.00 | 0.00 | 91 | 1014.9 |
| 20260905170154 | 67 | 306 | 0.0 | 4.0 | 0.00 | 0.00 | 0.00 | 91 | 1014.9 |
| 20260905165156 | 67 | 340 | 1.0 | 7.0 | 0.00 | 0.00 | 0.00 | 92 | 1014.9 |
| 20260905164654 | 67 | 267 | 4.0 | 8.0 | 0.00 | 0.00 | 0.00 | 92 | 1014.6 |
| 20260905164153 | 66 | 270 | 3.0 | 8.0 | 0.00 | 0.00 | 0.00 | 92 | 1014.6 |
| 20260905163653 | 66 | 270 | 2.0 | 6.0 | 0.00 | 0.00 | 0.00 | 92 | 1014.3 |
| 20260905163155 | 67 | 289 | 3.0 | 4.0 | 0.00 | 0.00 | 0.00 | 92 | 1014.3 |
| 20260905162653 | 67 | 11 | 0.0 | 5.0 | 0.00 | 0.00 | 0.00 | 93 | 1014.6 |
| 20260905162154 | 66 | 344 | 2.0 | 5.0 | 0.00 | 0.00 | 0.00 | 92 | 1014.3 |
| 20260905161652 | 66 | 349 | 2.0 | 7.0 | 0.00 | 0.00 | 0.00 | 93 | 1014.6 |
| 20260905160153 | 66 | 102 | 0.0 | 5.0 | 0.00 | 0.00 | 0.00 | 93 | 1013.9 |
| 20260905155651 | 66 | 19 | 2.0 | 4.0 | 0.00 | 0.00 | 0.00 | 93 | 1013.9 |
| 20260905155151 | 66 | 270 | 2.0 | 4.0 | 0.00 | 0.00 | 0.00 | 92 | 1014.3 |
| 20260905154651 | 66 | 139 | 2.0 | 4.0 | 0.00 | 0.00 | 0.00 | 92 | 1013.9 |
| 20260905153151 | 66 | 340 | 0.0 | 9.0 | 0.00 | 0.00 | 0.00 | 92 | 1014.3 |
| 20260905152649 | 66 | 287 | 3.0 | 9.0 | 0.00 | 0.00 | 0.00 | 92 | 1013.5 |
| 20260905152150 | 66 | 244 | 3.0 | 6.0 | 0.00 | 0.00 | 0.00 | 90 | 1013.9 |
| 20260905150648 | 66 | 320 | 2.0 | 5.0 | 0.00 | 0.00 | 0.00 | 92 | 1013.9 |
| 20260905150149 | 66 | 352 | 0.0 | 3.0 | 0.00 | 0.00 | 0.00 | 92 | 1013.9 |
| 20260905145148 | 65 | 8 | 0.0 | 3.0 | 0.00 | 0.00 | 0.00 | 92 | 1014.3 |
| 20260905144647 | 65 | 286 | 0.0 | 6.0 | 0.00 | 0.00 | 0.00 | 92 | 1014.3 |
| 20260905144146 | 66 | 188 | 0.0 | 6.0 | 0.00 | 0.00 | 0.00 | 92 | 1013.9 |
| 20260905143646 | 65 | 275 | 0.0 | 6.0 | 0.00 | 0.00 | 0.00 | 92 | 1013.5 |
| 20260905143145 | 66 | 285 | 2.0 | 7.0 | 0.00 | 0.00 | 0.00 | 91 | 1013.9 |
| 20260905142645 | 66 | 324 | 2.0 | 7.0 | 0.00 | 0.00 | 0.00 | 91 | 1013.9 |
| 20260905142145 | 65 | 348 | 1.0 | 7.0 | 0.00 | 0.00 | 0.00 | 93 | 1013.9 |
| 20260905141146 | 65 | 325 | 1.0 | 7.0 | 0.00 | 0.00 | 0.00 | 93 | 1014.3 |
| 20260905140146 | 64 | 270 | 0.0 | 6.0 | 0.00 | 0.00 | 0.00 | 93 | 1014.3 |
| 20260905135643 | 64 | 338 | 0.0 | 5.0 | 0.00 | 0.00 | 0.00 | 93 | 1013.9 |
| 20260905134144 | 64 | 261 | 0.0 | 3.0 | 0.00 | 0.00 | 0.00 | 94 | 1014.3 |
| 20260905133642 | 64 | 345 | 0.0 | 3.0 | 0.00 | 0.00 | 0.00 | 94 | 1013.9 |
| 20260905133144 | 64 | 283 | 1.0 | 3.0 | 0.00 | 0.00 | 0.00 | 95 | 1013.9 |
| 20260905132641 | 64 | 300 | 0.0 | 3.0 | 0.00 | 0.00 | 0.00 | 95 | 1013.9 |
| 20260905132144 | 63 | 282 | 3.0 | 3.0 | 0.00 | 0.00 | 0.00 | 95 | 1013.9 |
| 20260905131641 | 64 | 283 | 1.0 | 3.0 | 0.00 | 0.00 | 0.00 | 96 | 1014.3 |
| 20260905131141 | 63 | 352 | 0.0 | 3.0 | 0.00 | 0.00 | 0.00 | 96 | 1013.9 |
| 20260905130641 | 63 | 0 | 0.0 | 3.0 | 0.00 | 0.00 | 0.00 | 96 | 1013.9 |
| 20260905130130 | 63 | 340 | 0.0 | 4.0 | 0.00 | 0.00 | 0.00 | 96 | 1013.5 |
| 20260905125629 | 63 | 266 | 2.0 | 4.0 | 0.00 | 0.00 | 0.00 | 96 | 1013.9 |
| 20260905125129 | 63 | 276 | 2.0 | 5.0 | 0.00 | 0.00 | 0.00 | 96 | 1014.3 |
| 20260905124630 | 63 | 270 | 0.0 | 5.0 | 0.00 | 0.00 | 0.00 | 96 | 1013.5 |
| 20260905123629 | 63 | 346 | 1.0 | 5.0 | 0.00 | 0.00 | 0.00 | 96 | 1013.9 |
| 20260905123130 | 63 | 287 | 0.0 | 5.0 | 0.00 | 0.00 | 0.00 | 96 | 1014.3 |
| 20260905122630 | 63 | 250 | 0.0 | 6.0 | 0.00 | 0.00 | 0.00 | 95 | 1014.3 |
| 20260905122129 | 63 | 280 | 4.0 | 6.0 | 0.00 | 0.00 | 0.00 | 95 | 1013.9 |
| 20260905121129 | 63 | 10 | 0.0 | 5.0 | 0.00 | 0.00 | 0.00 | 96 | 1013.9 |
| 20260905120628 | 63 | 286 | 0.0 | 5.0 | 0.00 | 0.00 | 0.00 | 96 | 1013.5 |
| 20260905120129 | 63 | 344 | 2.0 | 6.0 | 0.00 | 0.00 | 0.00 | 96 | 1013.5 |
| 20260905115631 | 63 | 276 | 2.0 | 6.0 | 0.00 | 0.00 | 0.00 | 96 | 1013.5 |
| 20260905115129 | 63 | 257 | 2.0 | 6.0 | 0.00 | 0.00 | 0.00 | 96 | 1013.2 |
| 20260905114629 | 63 | 294 | 2.0 | 6.0 | 0.00 | 0.00 | 0.00 | 96 | 1013.2 |
| 20260905114129 | 63 | 337 | 1.0 | 5.0 | 0.00 | 0.00 | 0.00 | 96 | 1012.8 |
| 20260905113629 | 63 | 270 | 3.0 | 6.0 | 0.00 | 0.00 | 0.00 | 96 | 1013.2 |
| 20260905113129 | 63 | 295 | 2.0 | 6.0 | 0.00 | 0.00 | 0.00 | 96 | 1013.2 |
| 20260905112629 | 63 | 282 | 2.0 | 6.0 | 0.00 | 0.00 | 0.00 | 96 | 1013.2 |
| 20260905111629 | 63 | 337 | 1.0 | 5.0 | 0.00 | 0.00 | 0.00 | 96 | 1012.8 |
| 20260905111128 | 63 | 301 | 3.0 | 6.0 | 0.00 | 0.00 | 0.00 | 96 | 1012.8 |
| 20260905110631 | 63 | 264 | 1.0 | 6.0 | 0.00 | 0.00 | 0.00 | 96 | 1012.5 |
| 20260905110129 | 64 | 352 | 0.0 | 4.0 | 0.00 | 0.00 | 0.00 | 96 | 1012.5 |
| 20260905105630 | 64 | 306 | 1.0 | 4.0 | 0.00 | 0.00 | 0.00 | 96 | 1012.5 |
| 20260905105129 | 64 | 289 | 1.0 | 6.0 | 0.00 | 0.00 | 0.00 | 96 | 1012.5 |
| 20260905104628 | 64 | 331 | 1.0 | 6.0 | 0.00 | 0.00 | 0.00 | 96 | 1012.1 |
| 20260905104129 | 64 | 307 | 2.0 | 3.0 | 0.00 | 0.00 | 0.00 | 96 | 1012.1 |
| 20260905103630 | 64 | 324 | 2.0 | 6.0 | 0.00 | 0.00 | 0.00 | 96 | 1012.1 |
| 20260905103129 | 64 | 295 | 2.0 | 6.0 | 0.00 | 0.00 | 0.00 | 96 | 1012.1 |
| 20260905102129 | 64 | 249 | 0.0 | 6.0 | 0.00 | 0.00 | 0.00 | 96 | 1011.8 |
| 20260905101628 | 64 | 288 | 5.0 | 6.0 | 0.00 | 0.00 | 0.00 | 96 | 1011.8 |
| 20260905101128 | 64 | 334 | 3.0 | 6.0 | 0.00 | 0.00 | 0.00 | 96 | 1011.8 |
| 20260905100631 | 64 | 283 | 0.0 | 7.0 | 0.00 | 0.00 | 0.00 | 96 | 1011.8 |
| 20260905100129 | 64 | 275 | 2.0 | 7.0 | 0.00 | 0.00 | 0.00 | 96 | 1011.8 |
| 20260905095629 | 64 | 294 | 1.0 | 4.0 | 0.00 | 0.00 | 0.00 | 96 | 1011.8 |
| 20260905095128 | 64 | 283 | 1.0 | 6.0 | 0.00 | 0.00 | 0.00 | 95 | 1012.1 |
| 20260905094628 | 64 | 263 | 0.0 | 6.0 | 0.00 | 0.00 | 0.00 | 95 | 1011.8 |
| 20260905094128 | 64 | 287 | 0.0 | 7.0 | 0.00 | 0.00 | 0.00 | 95 | 1012.1 |
| 20260905093629 | 64 | 256 | 4.0 | 7.0 | 0.00 | 0.00 | 0.00 | 95 | 1012.5 |
| 20260905093127 | 64 | 261 | 0.0 | 7.0 | 0.00 | 0.00 | 0.00 | 95 | 1012.1 |
| 20260905092629 | 64 | 270 | 2.0 | 5.0 | 0.00 | 0.00 | 0.00 | 95 | 1012.8 |
| 20260905092126 | 64 | 294 | 0.0 | 4.0 | 0.00 | 0.00 | 0.00 | 95 | 1012.5 |
| 20260905091626 | 64 | 278 | 2.0 | 4.0 | 0.00 | 0.00 | 0.00 | 95 | 1012.5 |
| 20260905091126 | 64 | 270 | 0.0 | 5.0 | 0.00 | 0.00 | 0.00 | 95 | 1012.8 |
| 20260905090628 | 64 | 0 | 0.0 | 6.0 | 0.00 | 0.00 | 0.00 | 95 | 1012.5 |
| 20260905085626 | 64 | 232 | 2.0 | 5.0 | 0.00 | 0.00 | 0.00 | 95 | 1012.5 |
| 20260905085125 | 64 | 270 | 2.0 | 3.0 | 0.00 | 0.00 | 0.00 | 95 | 1012.5 |
| 20260905084625 | 64 | 286 | 1.0 | 3.0 | 0.00 | 0.00 | 0.00 | 95 | 1012.5 |
| 20260905084124 | 64 | 334 | 0.0 | 4.0 | 0.00 | 0.00 | 0.00 | 95 | 1012.5 |
| 20260905083626 | 64 | 287 | 2.0 | 4.0 | 0.00 | 0.00 | 0.00 | 95 | 1012.5 |
| 20260905083124 | 65 | 331 | 1.0 | 5.0 | 0.00 | 0.00 | 0.00 | 95 | 1012.5 |
| 20260905082623 | 64 | 295 | 2.0 | 5.0 | 0.00 | 0.00 | 0.00 | 94 | 1012.5 |
| 20260905082123 | 65 | 294 | 2.0 | 4.0 | 0.00 | 0.00 | 0.00 | 94 | 1012.5 |
| 20260905081623 | 64 | 291 | 3.0 | 4.0 | 0.00 | 0.00 | 0.00 | 95 | 1012.5 |
| 20260905081123 | 65 | 352 | 0.0 | 3.0 | 0.00 | 0.00 | 0.00 | 95 | 1012.8 |
| 20260905080622 | 65 | 289 | 0.0 | 2.0 | 0.00 | 0.00 | 0.00 | 94 | 1012.8 |
| 20260905075622 | 65 | 353 | 0.0 | 2.0 | 0.00 | 0.00 | 0.00 | 94 | 1012.8 |
| 20260905075122 | 65 | 331 | 1.0 | 3.0 | 0.00 | 0.00 | 0.00 | 94 | 1012.8 |
| 20260905074622 | 65 | 0 | 0.0 | 4.0 | 0.00 | 0.00 | 0.00 | 94 | 1012.5 |
| 20260905074120 | 65 | 323 | 3.0 | 4.0 | 0.00 | 0.00 | 0.00 | 93 | 1012.8 |
| 20260905073621 | 65 | 261 | 0.0 | 6.0 | 0.00 | 0.00 | 0.00 | 93 | 1012.5 |
| 20260905073120 | 65 | 284 | 3.0 | 6.0 | 0.00 | 0.00 | 0.00 | 93 | 1012.8 |
| 20260905072619 | 65 | 294 | 3.0 | 6.0 | 0.00 | 0.00 | 0.00 | 93 | 1012.8 |
| 20260905072120 | 65 | 270 | 0.0 | 4.0 | 0.00 | 0.00 | 0.00 | 94 | 1012.8 |
| 20260905071621 | 65 | 321 | 0.0 | 4.0 | 0.00 | 0.00 | 0.00 | 94 | 1012.8 |
| 20260905071118 | 66 | 5 | 1.0 | 3.0 | 0.00 | 0.00 | 0.00 | 93 | 1012.5 |
| 20260905070619 | 66 | 255 | 0.0 | 5.0 | 0.00 | 0.00 | 0.00 | 93 | 1012.8 |
| 20260905065618 | 65 | 307 | 2.0 | 4.0 | 0.00 | 0.00 | 0.00 | 93 | 1012.8 |
| 20260905065118 | 65 | 255 | 4.0 | 5.0 | 0.00 | 0.00 | 0.00 | 93 | 1012.8 |
| 20260905064619 | 65 | 315 | 2.0 | 5.0 | 0.00 | 0.00 | 0.00 | 93 | 1012.8 |
| 20260905064117 | 65 | 355 | 2.0 | 5.0 | 0.00 | 0.00 | 0.00 | 93 | 1012.8 |
| 20260905062616 | 65 | 289 | 0.0 | 3.0 | 0.00 | 0.00 | 0.00 | 95 | 1013.2 |
| 20260905062117 | 65 | 345 | 0.0 | 3.0 | 0.00 | 0.00 | 0.00 | 96 | 1012.8 |
| 20260905061618 | 65 | 0 | 0.0 | 3.0 | 0.00 | 0.00 | 0.00 | 96 | 1012.8 |
| 20260905061116 | 65 | 275 | 2.0 | 2.0 | 0.00 | 0.00 | 0.00 | 96 | 1013.2 |
| 20260905060615 | 65 | 286 | 0.0 | 2.0 | 0.00 | 0.00 | 0.00 | 96 | 1013.2 |
| 20260905060116 | 65 | 279 | 0.0 | 3.0 | 0.00 | 0.00 | 0.00 | 95 | 1013.2 |
| 20260905055614 | 65 | 285 | 3.0 | 3.0 | 0.00 | 0.00 | 0.00 | 95 | 1012.8 |
| 20260905054615 | 65 | 249 | 0.0 | 3.0 | 0.00 | 0.00 | 0.00 | 95 | 1013.2 |
| 20260905054113 | 65 | 295 | 0.0 | 3.0 | 0.00 | 0.00 | 0.00 | 95 | 1012.8 |
| 20260905053115 | 65 | 263 | 0.0 | 2.0 | 0.00 | 0.00 | 0.00 | 95 | 1012.8 |
| 20260905052613 | 65 | 270 | 0.0 | 2.0 | 0.00 | 0.00 | 0.00 | 95 | 1013.2 |
| 20260905052112 | 65 | 270 | 0.0 | 2.0 | 0.00 | 0.00 | 0.00 | 95 | 1012.8 |
| 20260905051112 | 65 | 257 | 0.0 | 2.0 | 0.00 | 0.00 | 0.00 | 94 | 1013.2 |
| 20260905050611 | 65 | 350 | 0.0 | 3.0 | 0.00 | 0.00 | 0.00 | 94 | 1012.8 |
| 20260905050112 | 65 | 0 | 0.0 | 3.0 | 0.00 | 0.00 | 0.00 | 94 | 1013.2 |
| 20260905045611 | 65 | 254 | 0.0 | 3.0 | 0.00 | 0.00 | 0.00 | 95 | 1013.2 |
| 20260905045111 | 65 | 246 | 0.0 | 2.0 | 0.00 | 0.00 | 0.00 | 94 | 1013.2 |
| 20260905044110 | 65 | 245 | 0.0 | 4.0 | 0.00 | 0.00 | 0.00 | 94 | 1013.2 |
| 20260905043609 | 65 | 334 | 2.0 | 5.0 | 0.00 | 0.00 | 0.00 | 95 | 1012.8 |
| 20260905043111 | 65 | 236 | 2.0 | 5.0 | 0.00 | 0.00 | 0.00 | 95 | 1013.2 |
| 20260905042609 | 65 | 0 | 1.0 | 3.0 | 0.00 | 0.00 | 0.00 | 95 | 1012.8 |
| 20260905042108 | 65 | 263 | 0.0 | 4.0 | 0.00 | 0.00 | 0.00 | 95 | 1012.8 |
| 20260905041610 | 65 | 308 | 2.0 | 4.0 | 0.00 | 0.00 | 0.00 | 94 | 1012.8 |
| 20260905041109 | 65 | 0 | 0.0 | 5.0 | 0.00 | 0.00 | 0.00 | 94 | 1012.8 |
| 20260905040607 | 66 | 270 | 2.0 | 5.0 | 0.00 | 0.01 | 0.00 | 94 | 1012.8 |
| 20260905040109 | 66 | 0 | 0.0 | 5.0 | 0.00 | 0.01 | 0.00 | 94 | 1012.8 |
| 20260905035607 | 66 | 311 | 3.0 | 5.0 | 0.00 | 0.01 | 0.00 | 94 | 1013.2 |
| 20260905034608 | 66 | 337 | 0.0 | 6.0 | 0.00 | 0.01 | 0.00 | 94 | 1013.2 |
| 20260905034106 | 66 | 247 | 2.0 | 6.0 | 0.00 | 0.01 | 0.00 | 94 | 1013.2 |
| 20260905033607 | 66 | 257 | 1.0 | 6.0 | 0.00 | 0.01 | 0.00 | 94 | 1012.8 |
| 20260905033105 | 66 | 279 | 2.0 | 6.0 | 0.00 | 0.01 | 0.00 | 94 | 1013.2 |
| 20260905032605 | 66 | 300 | 1.0 | 5.0 | 0.00 | 0.01 | 0.00 | 94 | 1013.2 |
| 20260905031605 | 66 | 259 | 3.0 | 4.0 | 0.00 | 0.07 | 0.00 | 95 | 1013.2 |
| 20260905031105 | 66 | 282 | 2.0 | 4.0 | 0.00 | 0.15 | 0.00 | 96 | 1013.2 |
| 20260905030606 | 65 | 7 | 0.0 | 3.0 | 0.00 | 0.33 | 0.00 | 97 | 1013.2 |
| 20260905025103 | 64 | 279 | 0.0 | 3.0 | 0.00 | 0.48 | 0.00 | 98 | 1012.8 |
| 20260905023602 | 64 | 270 | 0.0 | 0.0 | 0.00 | 0.48 | 0.00 | 99 | 1012.8 |
| 20260905023101 | 64 | 270 | 0.0 | 0.0 | 0.00 | 0.48 | 0.00 | 98 | 1012.8 |
| 20260905022101 | 64 | 270 | 0.0 | 0.0 | 0.00 | 0.48 | 0.00 | 98 | 1012.5 |
| 20260905021601 | 64 | 270 | 0.0 | 0.0 | 0.00 | 0.48 | 0.00 | 98 | 1012.8 |
| 20260905021101 | 64 | 270 | 0.0 | 0.0 | 0.00 | 0.48 | 0.00 | 98 | 1012.8 |
| 20260905020601 | 64 | 270 | 0.0 | 0.0 | 0.00 | 0.48 | 0.00 | 97 | 1012.5 |
| 20260905020100 | 64 | 270 | 0.0 | 1.0 | 0.00 | 0.48 | 0.00 | 97 | 1012.5 |
| 20260905015600 | 64 | 294 | 0.0 | 3.0 | 0.00 | 0.48 | 0.00 | 97 | 1012.8 |
| 20260905014559 | 65 | 261 | 0.0 | 2.0 | 0.00 | 0.48 | 0.00 | 97 | 1012.1 |
| 20260905014058 | 65 | 277 | 0.0 | 2.0 | 0.00 | 0.48 | 0.00 | 97 | 1012.1 |
| 20260905013559 | 65 | 261 | 0.0 | 3.0 | 0.00 | 0.48 | 0.00 | 96 | 1012.1 |
| 20260905013058 | 65 | 278 | 0.0 | 4.0 | 0.00 | 0.48 | 0.00 | 96 | 1012.1 |